Precipitable_Water
0.39 0.32 0.21 0.20 0.27 0.27 0.25 0.22 0.19 0.20 0.24 0.26 0.25 0.26 0.26 0.29 0.28 0.28 0.31 0.31 0.31 0.33 0.35 0.36 0.38 0.39 0.39 0.51 0.50 0.50 0.50 0.52 0.57 0.59 0.67 0.65 0.60 0.73 0.85 0.94 1.02 1.11 1.14 1.13
0.34 0.26 0.23 0.31 0.35 0.34 0.29 0.22 0.18 0.23 0.23 0.28 0.29 0.29 0.31 0.33 0.31 0.31 0.31 0.30 0.31 0.32 0.33 0.36 0.39 0.43 0.46 0.40 0.42 0.51 0.52 0.54 0.57 0.62 0.71 0.70 0.65 0.70 0.80 0.88 0.94 1.02 1.08 1.10
0.30 0.25 0.37 0.35 0.33 0.30 0.28 0.23 0.20 0.19 0.26 0.31 0.28 0.26 0.29 0.35 0.37 0.36 0.34 0.33 0.33 0.33 0.35 0.38 0.39 0.41 0.49 0.50 0.44 0.42 0.49 0.54 0.59 0.65 0.73 0.72 0.74 0.73 0.74 0.77 0.84 0.95 0.96 1.05
0.34 0.35 0.35 0.33 0.30 0.31 0.24 0.29 0.29 0.24 0.25 0.19 0.29 0.17 0.25 0.29 0.33 0.34 0.35 0.33 0.32 0.34 0.35 0.35 0.36 0.39 0.44 0.51 0.55 0.52 0.44 0.50 0.58 0.69 0.70 0.64 0.57 0.53 0.58 0.63 0.76 0.87 0.94 0.99
0.29 0.26 0.33 0.34 0.34 0.34 0.24 0.33 0.32 0.29 0.25 0.27 0.27 0.22 0.20 0.29 0.28 0.29 0.30 0.32 0.32 0.33 0.33 0.34 0.37 0.41 0.46 0.52 0.55 0.60 0.57 0.51 0.54 0.63 0.72 0.66 0.61 0.62 0.64 0.70 0.72 0.82 0.91 0.92
0.19 0.33 0.40 0.36 0.37 0.41 0.36 0.33 0.33 0.36 0.29 0.24 0.25 0.22 0.21 0.25 0.28 0.28 0.31 0.30 0.30 0.31 0.32 0.36 0.41 0.45 0.48 0.54 0.58 0.62 0.63 0.60 0.59 0.60 0.72 0.68 0.67 0.67 0.65 0.66 0.71 0.78 0.86 0.88
0.21 0.19 0.37 0.43 0.36 0.37 0.39 0.33 0.22 0.20 0.22 0.19 0.23 0.24 0.23 0.29 0.29 0.27 0.27 0.30 0.31 0.30 0.31 0.34 0.40 0.44 0.48 0.54 0.59 0.64 0.67 0.66 0.68 0.70 0.74 0.73 0.73 0.75 0.71 0.69 0.74 0.75 0.78 0.83
0.16 0.15 0.26 0.33 0.34 0.33 0.34 0.30 0.20 0.14 0.16 0.21 0.26 0.23 0.24 0.30 0.29 0.26 0.26 0.26 0.27 0.29 0.31 0.34 0.40 0.45 0.50 0.56 0.60 0.64 0.67 0.69 0.72 0.75 0.73 0.72 0.74 0.79 0.83 0.83 0.82 0.80 0.77 0.79
0.15 0.17 0.28 0.30 0.31 0.34 0.34 0.30 0.27 0.21 0.21 0.18 0.24 0.26 0.28 0.30 0.28 0.25 0.25 0.26 0.26 0.26 0.27 0.30 0.35 0.41 0.49 0.53 0.58 0.62 0.65 0.67 0.73 0.75 0.73 0.68 0.76 0.80 0.84 0.90 0.92 0.87 0.83 0.82
0.19 0.14 0.24 0.26 0.30 0.31 0.31 0.35 0.27 0.27 0.15 0.15 0.20 0.21 0.21 0.25 0.25 0.26 0.24 0.25 0.26 0.27 0.27 0.29 0.32 0.35 0.40 0.46 0.52 0.58 0.63 0.66 0.70 0.74 0.77 0.76 0.78 0.82 0.85 0.90 0.89 0.88 0.86 0.84
0.21 0.18 0.17 0.21 0.19 0.19 0.22 0.24 0.25 0.30 0.26 0.17 0.15 0.16 0.25 0.24 0.26 0.26 0.25 0.27 0.28 0.29 0.29 0.29 0.31 0.35 0.38 0.43 0.49 0.51 0.58 0.63 0.70 0.74 0.77 0.79 0.79 0.80 0.83 0.84 0.85 0.84 0.85 0.84
0.20 0.18 0.13 0.16 0.22 0.24 0.22 0.20 0.22 0.19 0.22 0.24 0.20 0.16 0.26 0.26 0.27 0.28 0.27 0.29 0.31 0.29 0.29 0.30 0.31 0.35 0.37 0.40 0.44 0.49 0.52 0.61 0.67 0.74 0.80 0.82 0.88 0.87 0.85 0.84 0.84 0.84 0.82 0.86
0.16 0.14 0.11 0.13 0.17 0.17 0.18 0.19 0.22 0.25 0.24 0.18 0.17 0.16 0.26 0.26 0.26 0.26 0.26 0.28 0.29 0.31 0.31 0.31 0.32 0.33 0.37 0.41 0.44 0.48 0.53 0.58 0.66 0.73 0.80 0.81 0.84 0.87 0.85 0.86 0.87 0.88 0.88 0.88
0.16 0.14 0.12 0.09 0.11 0.14 0.14 0.17 0.20 0.22 0.17 0.16 0.16 0.16 0.20 0.21 0.23 0.24 0.25 0.26 0.27 0.29 0.32 0.32 0.32 0.36 0.37 0.42 0.45 0.49 0.54 0.57 0.63 0.66 0.71 0.77 0.81 0.84 0.85 0.86 0.85 0.86 0.88 0.91
0.13 0.11 0.12 0.13 0.14 0.14 0.13 0.15 0.16 0.17 0.17 0.15 0.16 0.17 0.19 0.21 0.22 0.22 0.24 0.25 0.27 0.29 0.31 0.34 0.35 0.36 0.38 0.41 0.44 0.47 0.51 0.56 0.61 0.64 0.68 0.76 0.82 0.86 0.90 0.88 0.86 0.86 0.88 0.89
0.18 0.11 0.11 0.10 0.12 0.12 0.12 0.13 0.15 0.16 0.16 0.16 0.17 0.17 0.22 0.24 0.23 0.23 0.23 0.24 0.25 0.27 0.30 0.33 0.36 0.38 0.40 0.40 0.42 0.45 0.48 0.52 0.57 0.59 0.65 0.75 0.80 0.85 0.89 0.91 0.91 0.88 0.88 0.86
0.12 0.11 0.10 0.09 0.10 0.09 0.09 0.11 0.13 0.14 0.15 0.16 0.14 0.17 0.21 0.21 0.23 0.23 0.23 0.24 0.25 0.27 0.29 0.31 0.34 0.37 0.40 0.42 0.42 0.43 0.45 0.49 0.53 0.57 0.60 0.71 0.78 0.82 0.88 0.93 0.94 0.91 0.89 0.86
0.12 0.13 0.11 0.08 0.09 0.06 0.11 0.13 0.14 0.13 0.14 0.16 0.16 0.18 0.19 0.20 0.23 0.23 0.25 0.24 0.25 0.27 0.28 0.30 0.32 0.34 0.38 0.43 0.44 0.45 0.44 0.44 0.47 0.52 0.57 0.71 0.77 0.81 0.87 0.91 0.94 0.93 0.95 0.88
0.13 0.12 0.08 0.06 0.06 0.08 0.09 0.11 0.12 0.12 0.12 0.15 0.15 0.17 0.18 0.20 0.21 0.22 0.24 0.26 0.26 0.28 0.29 0.30 0.32 0.34 0.36 0.40 0.44 0.45 0.44 0.43 0.43 0.45 0.54 0.61 0.72 0.77 0.81 0.81 0.88 0.91 0.90 0.90
0.11 0.12 0.10 0.07 0.05 0.05 0.09 0.11 0.13 0.13 0.09 0.14 0.15 0.15 0.16 0.17 0.14 0.17 0.22 0.23 0.24 0.26 0.27 0.29 0.31 0.33 0.35 0.37 0.40 0.43 0.45 0.44 0.43 0.45 0.49 0.59 0.66 0.75 0.77 0.84 0.87 0.92 0.96 0.94
0.09 0.09 0.07 0.07 0.06 0.07 0.10 0.11 0.12 0.07 0.09 0.14 0.15 0.15 0.15 0.14 0.16 0.19 0.20 0.21 0.23 0.23 0.25 0.27 0.29 0.30 0.32 0.36 0.39 0.38 0.44 0.45 0.45 0.46 0.46 0.53 0.62 0.70 0.73 0.78 0.83 0.88 0.91 0.96
0.08 0.08 0.08 0.08 0.07 0.06 0.12 0.11 0.08 0.11 0.13 0.13 0.14 0.14 0.14 0.16 0.17 0.18 0.19 0.20 0.21 0.21 0.22 0.23 0.25 0.27 0.29 0.32 0.35 0.37 0.39 0.43 0.48 0.45 0.44 0.49 0.57 0.62 0.65 0.68 0.74 0.77 0.81 0.84
0.07 0.10 0.08 0.09 0.09 0.14 0.14 0.12 0.14 0.13 0.12 0.13 0.13 0.13 0.14 0.14 0.15 0.17 0.18 0.19 0.20 0.20 0.20 0.22 0.23 0.22 0.26 0.29 0.32 0.32 0.36 0.40 0.40 0.46 0.44 0.44 0.56 0.59 0.61 0.60 0.65 0.68 0.72 0.76
0.11 0.13 0.10 0.11 0.11 0.12 0.14 0.15 0.15 0.14 0.13 0.13 0.13 0.13 0.13 0.13 0.14 0.14 0.16 0.18 0.18 0.20 0.20 0.21 0.21 0.22 0.22 0.24 0.26 0.32 0.33 0.35 0.40 0.38 0.43 0.45 0.50 0.53 0.58 0.62 0.62 0.64 0.68 0.72
0.11 0.12 0.11 0.11 0.11 0.12 0.14 0.14 0.13 0.14 0.14 0.13 0.13 0.13 0.13 0.13 0.13 0.14 0.14 0.15 0.17 0.19 0.19 0.20 0.20 0.19 0.21 0.24 0.24 0.25 0.30 0.34 0.32 0.37 0.37 0.43 0.51 0.56 0.56 0.60 0.62 0.62 0.65 0.70
0.11 0.09 0.09 0.09 0.12 0.11 0.11 0.13 0.14 0.13 0.13 0.13 0.12 0.12 0.12 0.12 0.11 0.13 0.13 0.14 0.15 0.18 0.19 0.19 0.19 0.20 0.20 0.21 0.23 0.23 0.25 0.27 0.31 0.33 0.33 0.36 0.44 0.55 0.58 0.58 0.62 0.67 0.65 0.68
Wind_Speed
44 43 50 54 50 42 39 36 40 34 34 36 38 34 31 29 29 29 28 27 27 28 27 27 27 27 27 28 29 29 29 30 30 30 29 29 29 29 30 30 30 29 29 29
43 53 54 45 44 45 44 40 39 34 35 34 35 36 33 33 29 29 29 28 29 29 28 28 28 28 28 30 31 31 31 31 31 31 31 30 30 31 31 31 31 32 31 30
48 48 46 45 46 47 49 48 41 33 27 30 31 33 36 33 30 30 30 29 29 29 29 29 29 29 30 30 32 34 34 34 33 33 33 32 32 31 32 33 33 33 33 33
42 49 45 49 49 47 48 48 41 40 29 31 33 31 36 34 32 31 30 29 29 30 31 31 31 31 32 33 33 34 36 37 37 37 36 35 35 34 34 34 34 34 35 34
35 41 44 49 46 48 49 40 44 41 36 29 34 29 36 34 33 33 32 31 31 31 31 32 32 33 33 33 35 35 36 38 39 39 39 37 36 36 35 35 35 36 35 35
45 40 31 40 48 43 45 37 38 33 37 37 37 35 31 32 36 33 31 31 31 32 32 32 32 32 32 32 33 34 35 37 38 40 39 39 38 37 36 36 35 35 35 35
31 43 36 25 34 45 38 36 30 33 31 36 44 36 26 25 28 32 32 30 30 30 31 31 31 32 32 32 33 33 33 35 35 36 37 37 37 37 37 36 35 34 34 34
18 25 28 30 26 31 47 44 33 34 36 30 33 34 29 28 29 30 30 29 29 29 29 29 29 29 30 30 30 30 31 31 32 33 34 35 36 35 34 34 34 33 32 33
14 18 20 21 30 27 29 43 46 29 28 32 28 24 26 30 30 30 30 30 29 29 29 28 28 28 28 27 27 27 27 28 29 30 32 34 34 34 34 33 33 33 31 31
14 17 14 20 20 25 24 26 37 34 34 26 26 28 30 30 29 30 30 30 30 29 28 27 26 25 25 25 25 24 24 25 26 28 29 31 32 32 33 32 32 31 31 31
11 15 10 14 16 11 27 23 27 28 29 31 23 23 25 28 30 30 30 29 29 29 28 27 27 26 26 26 25 25 24 24 24 25 26 27 30 31 31 32 32 32 31 31
9 13 12 12 16 14 8 18 25 29 30 24 21 24 24 25 26 27 29 30 29 28 27 27 28 28 27 27 26 25 25 25 25 26 26 27 28 29 30 30 31 32 32 32
5 8 14 16 15 11 10 10 19 26 26 25 24 20 22 22 23 24 25 26 27 28 28 27 27 26 27 27 27 27 26 26 26 25 26 27 27 29 30 30 30 30 31 31
3 2 7 11 10 7 9 5 5 15 18 19 19 20 18 20 22 22 24 25 25 26 26 27 26 26 26 27 27 27 26 25 26 28 28 28 29 29 30 30 30 30 29 30
4 6 10 12 11 6 3 2 4 5 12 17 18 14 16 16 19 20 20 21 22 23 23 25 26 26 25 26 27 27 28 28 28 27 28 29 29 30 31 31 30 31 30 30
2 7 10 11 9 6 4 0 3 5 4 10 14 13 13 16 17 16 17 18 19 21 22 22 23 24 25 25 25 26 27 28 28 28 28 28 29 30 30 31 30 30 29 29
2 5 10 9 9 9 6 4 4 6 4 8 9 14 13 13 14 14 15 17 18 19 21 21 21 22 24 24 24 25 26 26 28 28 28 27 28 29 29 31 31 31 30 29
3 3 4 7 10 7 12 4 7 8 5 5 8 10 12 15 16 14 15 18 20 20 20 21 22 23 23 24 24 24 25 25 25 27 27 26 26 27 29 29 31 31 30 30
8 1 0 4 5 12 8 7 10 11 7 5 7 8 10 13 17 17 14 14 16 19 21 22 23 24 24 25 25 25 24 24 25 25 27 26 26 26 25 27 28 31 31 31
12 7 3 1 2 6 9 10 11 13 12 9 9 10 10 10 12 14 14 15 17 18 19 21 23 24 24 25 26 27 26 25 24 25 26 28 27 27 27 25 27 28 30 30
8 7 8 6 2 2 6 11 12 13 13 14 12 12 13 14 16 18 17 16 17 17 19 20 21 22 24 24 26 26 28 28 27 27 27 28 29 28 28 28 27 27 28 29
8 6 6 6 5 2 6 2 7 11 13 15 14 14 15 17 18 18 18 18 19 19 19 19 20 21 23 24 25 26 27 29 30 29 29 28 28 28 29 29 29 28 29 29
9 8 6 6 5 5 5 3 1 5 10 12 14 16 17 18 18 19 19 19 19 19 19 20 20 20 20 22 24 26 27 28 30 31 30 29 29 28 28 28 29 28 29 29
7 7 6 5 6 4 2 4 5 6 6 9 13 15 17 18 19 20 20 20 20 21 21 22 22 23 24 24 24 26 28 28 29 30 31 32 31 30 29 28 28 28 28 28
5 6 6 4 6 6 4 6 7 8 8 8 9 11 14 16 19 20 21 21 22 23 22 22 23 23 24 25 26 26 26 27 30 31 32 32 33 33 31 29 29 29 29 28
7 6 6 6 7 6 8 9 10 9 10 10 10 10 10 11 13 15 18 19 20 21 21 21 22 23 23 24 25 25 27 28 30 31 32 33 33 33 33 32 30 28 28 29
Wind_Direction
231 230 229 230 232 236 234 233 234 236 229 225 230 230 229 226 224 223 223 223 224 227 231 233 236 238 240 237 237 238 239 241 242 242 242 243 244 243 243 241 240 239 240 241
231 232 234 234 232 234 234 235 235 233 233 226 228 231 228 226 225 223 224 227 230 233 236 237 239 239 242 242 240 241 241 242 243 243 244 245 244 244 243 242 241 241 241 241
233 236 235 233 231 230 232 233 234 235 228 232 229 232 227 227 222 222 225 228 231 234 236 239 242 243 245 246 245 244 245 245 246 245 245 246 245 245 243 243 243 242 241 241
240 236 235 230 233 231 233 231 233 234 226 231 227 236 227 222 222 224 225 230 233 236 239 242 244 246 248 249 250 251 248 248 247 246 245 245 244 244 244 243 242 242 241 241
236 237 235 235 231 231 236 232 229 232 230 229 226 233 233 219 222 225 229 230 235 238 240 244 247 248 250 252 253 253 252 250 248 247 244 244 244 244 244 242 241 241 241 240
240 238 242 239 235 232 232 231 231 231 230 232 226 227 234 223 219 225 229 232 236 240 242 245 248 249 251 254 255 255 254 252 249 245 243 242 243 242 242 241 241 240 240 240
243 234 233 239 234 227 224 215 221 223 224 227 224 228 233 224 218 223 227 232 236 240 244 246 249 250 253 254 256 256 256 253 248 243 240 240 241 241 239 239 238 237 239 240
241 222 232 233 229 227 217 217 220 218 220 221 219 227 224 219 222 227 231 234 238 241 244 247 249 250 252 254 256 256 254 252 246 241 238 239 239 238 238 236 236 237 238 240
240 224 228 225 227 225 225 219 221 231 227 224 218 223 220 220 224 229 232 236 240 243 245 247 250 251 251 252 253 253 251 249 246 240 238 237 237 235 234 235 235 237 239 239
235 234 239 225 223 224 222 224 213 219 216 218 222 221 221 219 226 233 237 240 242 244 246 247 247 248 248 249 250 249 248 246 244 240 238 235 234 234 233 234 235 236 238 238
246 227 232 213 212 223 224 216 225 225 220 217 215 221 226 225 229 234 238 240 242 244 246 247 247 248 248 249 250 248 247 245 242 239 237 235 233 232 232 233 235 237 239 239
249 229 216 197 191 199 200 225 222 222 213 223 223 222 225 227 228 233 238 241 243 245 246 247 248 248 249 249 248 247 246 244 243 240 237 236 231 230 231 233 236 238 239 241
285 232 217 206 227 229 214 254 234 218 226 219 215 212 219 225 228 234 238 241 244 246 248 248 250 249 249 248 247 247 246 243 242 240 237 236 236 233 234 236 237 238 240 240
202 141 164 183 185 200 213 241 230 204 210 194 211 209 223 229 233 237 240 243 246 247 248 248 248 249 248 247 247 246 245 243 242 241 241 239 239 239 237 237 238 238 239 242
186 171 151 159 159 136 148 192 210 169 199 202 182 193 219 228 233 238 239 245 247 247 249 249 248 249 248 248 248 247 246 245 245 243 242 241 241 241 238 237 238 239 241 243
244 190 178 177 181 150 91 41 172 199 185 193 200 204 222 229 228 231 241 246 249 249 249 251 249 249 248 250 249 248 246 245 244 243 242 243 243 241 240 237 238 238 240 243
339 203 213 216 228 210 215 305 223 191 201 217 212 225 234 231 235 224 241 249 252 251 250 250 250 249 248 249 250 248 247 246 243 242 241 242 242 241 241 237 238 237 239 241
343 279 214 222 226 210 198 223 210 172 187 212 221 232 244 250 236 233 252 257 255 254 253 252 252 251 250 248 249 250 247 244 243 240 240 240 241 241 241 241 238 237 238 240
17 360 267 207 211 198 215 241 232 228 212 256 256 254 260 255 239 238 258 255 253 254 254 255 254 253 251 249 248 249 247 245 243 241 240 241 242 240 243 240 239 237 238 239
28 44 82 66 174 216 231 254 245 222 223 279 267 260 263 257 232 244 262 260 261 258 257 257 257 255 253 252 251 247 245 244 242 244 243 241 242 240 239 241 240 240 238 239
20 27 37 44 112 183 280 253 241 237 244 270 267 264 262 253 252 260 262 264 262 263 263 262 260 257 256 255 253 249 245 244 246 245 244 243 242 241 241 241 241 241 240 239
32 23 33 21 58 53 355 273 226 240 253 259 262 263 263 261 261 261 263 267 267 265 265 265 261 261 259 258 254 252 248 248 246 245 244 243 243 241 242 242 242 242 242 241
35 50 47 54 57 45 43 55 316 267 256 259 261 264 264 265 265 267 268 266 266 268 265 266 264 264 263 261 259 254 254 251 248 245 244 243 243 243 242 243 242 243 243 241
28 29 41 39 23 10 20 22 7 338 299 281 268 264 264 265 267 266 265 267 268 268 268 267 269 268 267 266 265 260 256 254 250 247 245 244 243 244 243 243 242 241 241 242
352 351 351 354 356 356 3 345 334 329 325 314 299 283 273 269 268 265 268 269 270 270 271 270 269 269 268 266 263 261 259 256 252 249 246 245 242 243 243 243 241 241 240 241
332 319 328 312 313 316 311 320 323 322 317 311 309 306 299 289 280 276 275 272 271 270 270 269 269 269 270 267 264 264 262 259 254 251 248 245 243 243 240 239 240 240 241 240